Погода в Урале

Россия / Красноярский край     55°54′21″N   94°44′56″E
темп.,
°C
ветер,
м/с
пор.,
м/с
влажн.,
%
обл.,
%
осадки,
мм/ч
давл.,
гПа
погр.,
м
11 августа, чт
чт1101:00+13зсз22935 0.0 101024
04:00+12зсз22960 0.0 101114
07:00+15з12880 0.0 1011119
10:00+21з34580 0.0 1011963
13:00+25зсз344243 0.0 10102009
16:00+25сз234298 0.0 10092033
19:00+21всв226141 0.0 101029
22:00+17ссв118119 0.0 101011
12 августа, пт
пт1201:00+15ссз11875 0.0 101011
04:00+15юз118387 0.1 100911
07:00+16зсз11865 0.5 100981
10:00+19сз237982 0.4 1009287
13:00+24зсз45455 0.5 10081559
16:00+25с444257 0.0 10082032
19:00+20ссв115996 0.0 100948
22:00+14с22724 0.0 101115
13 августа, сб
сб1301:00+11с117945 0.0 101110
04:00+11сз117948 0.0 101011
07:00+13з007082 0.0 101184
10:00+19всв115495 0.0 1009679
13:00+23в124440 0.0 10081885
16:00+23з123496 0.0 10072270
19:00+21св35515 0.0 1006165
22:00+13в22810 0.0 100711
14 августа, вс
вс1401:00+11всв118653 0.0 100710
04:00+11в1187100 0.0 100510
07:00+13ююв1380100 0.1 100587
10:00+19з5764100 0.5 1004920
13:00+17юз3883100 1.0 1003712
16:00+20з59677 1.5 10021324
19:00+16юз498912 5.7 1002361
22:00+14юз4119225 1.1 1002388
15 августа, пн
пн1501:00+13юз4119175 1.1 1002355
04:00+11юз4119419 0.0 1002430
07:00+11зюз611895 0.3 1004771
10:00+13зюз61172100 0.1 10041201
13:00+17з7115067 0.3 10041953
16:00+16з6105871 0.4 10041315
19:00+13зсз386692 0.6 1005912
22:00+12зюз2569100 0.0 1006297